[[{"header":{"parameterUnit":"m.s-1","parameterCategory":1,"la1":30.2991,"la2":30.254,"lo1":-89.0895,"lo2":-89.0444,"dy":0.0017,"dx":0.0017,"nx":28,"ny":28,"refTime":"2024-07-13T03:00:00:Z","depth":0,"parameterNumber":2,"parameterNumberName":"U-component_of_WINDS"},"data":[0,0,0,0,0,0,0,0,0,0,0,0,0,0,0,0,0,0,0,0,0,0,0,0,0,0,0,0,0,0,0,0,0,0,0,0,0,0,0,0,0,0,0,0,0,0,0,0,0,0,0,0,0,0,0,0,0,0,0.5628,0.5629,0,0.5771,0.5772,0.5774,0.5816,0.5815,0.5814,0.5814,0.5964,0.5969,0.5974,0,0,0,0,0,0,0,0,0,0,0,0,0,0.5395,0.5399,0.5628,0.5629,0.5631,0.5771,0.5772,0.5774,0.5816,0.5815,0.5814,0.5813,0.5963,0.5968,0.5974,0,0,0,0,0,0,0,0,0,0,0,0,0,0.5513,0.54,0.5627,0.5669,0.5674,0.577,0.5773,0.5775,0.5816,0.5815,0.5814,0.5813,0.5961,0.5968,0.5975,0.6042,0,0,0.5996,0.6,0,0,0,0,0,0,0,0,0.5506,0.5521,0.5661,0.5666,0.5672,0.5774,0.5746,0.5865,0.5816,0.5762,0.5814,0.5812,0.5902,0.5914,0.5944,0.6049,0.6055,0.5997,0.6001,0.6004,0.6006,0,0,0,0,0,0,0,0.5498,0.5515,0.5684,0.5663,0.567,0.5681,0.5697,0.5768,0.5837,0.5767,0.577,0.5786,0.5905,0.5937,0.5947,0.6057,0.5997,0.6003,0.6008,0.601,0.6225,0.6227,0,0,0,0,0,0,0.5482,0.5508,0.568,0.5689,0.5584,0.5687,0.5704,0.5743,0.5836,0.585,0.5787,0.5788,0.5925,0.5939,0.5953,0.6038,0.6004,0.6011,0.6015,0.6224,0.6226,0.6227,0,0,0,0,0,0,0.5477,0.5497,0.5674,0.56,0.5623,0.5692,0.5735,0.5746,0.5778,0.5852,0.5865,0.5806,0.5925,0.5943,0.6019,0.6043,0.6014,0.6021,0.6222,0.6225,0.6227,0.6207,0,0,0,0,0,0,0.547,0.5495,0.552,0.56,0.5627,0.5736,0.5736,0.575,0.5789,0.5791,0.5873,0.5886,0.5925,0.6008,0.6026,0.6053,0.6026,0.622,0.6223,0.6226,0.6206,0.6208,0.6211,0,0,0,0,0,0.5461,0.5509,0.5521,0.5541,0.5659,0.5738,0.5753,0.5797,0.5791,0.5817,0.5865,0.5883,0.6038,0.6016,0.6036,0.6065,0.6219,0.6222,0.6226,0.6205,0.6208,0.621,0,0,0,0,0,0,0.5432,0.5521,0.5534,0.5609,0.5665,0.5745,0.5779,0.5798,0.5859,0.5858,0.5911,0.5929,0.6001,0.6041,0.6015,0.6135,0.6129,0.6137,0.6106,0.611,0.6112,0.6101,0.6032,0,0,0,0,0,0.5434,0.5489,0.5564,0.5623,0.565,0.571,0.5746,0.5774,0.5835,0.5859,0.5913,0.5972,0.6035,0.6075,0.6136,0.6212,0.6231,0.6242,0.6244,0.6246,0.6252,0.6296,0.6302,0.6238,0.6238,0.6238,0,0,0.5439,0.5494,0.5526,0.5618,0.5665,0.5722,0.573,0.579,0.5833,0.5869,0.5944,0.5985,0.6056,0.6132,0.6168,0.6167,0.6274,0.625,0.6251,0.6256,0.63,0.6306,0.6311,0.624,0.624,0.624,0,0,0.5477,0.5524,0.5578,0.5625,0.5696,0.5735,0.5748,0.5825,0.5853,0.5929,0.5957,0.601,0.6116,0.6165,0.6203,0.6261,0.628,0.6279,0.6291,0.6333,0.6338,0.6343,0.6364,0.6371,0.6285,0.6285,0.6285,0,0.5475,0.556,0.5604,0.5663,0.5703,0.5737,0.5793,0.5837,0.5925,0.5952,0.595,0.6083,0.6133,0.6222,0.6235,0.6266,0.6283,0.627,0.6334,0.6339,0.6344,0.6365,0.6372,0.6285,0.6285,0.6285,0.6285,0,0.5554,0.5613,0.5649,0.5731,0.5776,0.5833,0.5887,0.5927,0.5951,0.5991,0.6069,0.6129,0.6204,0.6227,0.6252,0.6319,0.6317,0.6323,0.6318,0.6349,0.6369,0.6377,0.6284,0.6284,0.6284,0.6284,0,0,0.5577,0.5683,0.5695,0.5733,0.5814,0.5861,0.5921,0.5992,0.6025,0.6085,0.6137,0.6225,0.6232,0.6276,0.6307,0.6344,0.6386,0.6347,0.6349,0.6352,0.6465,0.6459,0.6467,0.6399,0.6401,0.6402,0.6459,0,0.5625,0.5731,0.5773,0.5859,0.5915,0.5948,0.6,0.6056,0.6095,0.615,0.6194,0.6256,0.626,0.6286,0.6324,0.6373,0.6409,0.6369,0.6449,0.6451,0.643,0.6477,0.6472,0.6522,0.6467,0.6468,0.6469,0,0.5696,0.5754,0.5846,0.592,0.5945,0.5991,0.606,0.6111,0.6176,0.6202,0.625,0.628,0.6344,0.6335,0.6426,0.6397,0.6433,0.6462,0.6465,0.6474,0.6462,0.6488,0.6539,0.6546,0.6482,0.6481,0.648,0,0.5703,0.5806,0.5874,0.5905,0.5993,0.6025,0.6063,0.6127,0.6167,0.6228,0.6255,0.6323,0.6361,0.6413,0.6461,0.6449,0.6547,0.6542,0.6571,0.657,0.659,0.6588,0.6647,0.6613,0.6613,0.6613,0.6612,0,0.5753,0.5807,0.5878,0.592,0.5983,0.6031,0.6092,0.6133,0.6189,0.6241,0.6275,0.6323,0.6382,0.6438,0.6476,0.6545,0.6562,0.6586,0.6595,0.6583,0.658,0.6606,0.6604,0.6615,0.6614,0.6614,0.6613,0,0.5771,0.5821,0.5897,0.5975,0.5995,0.6038,0.6105,0.6148,0.6189,0.6253,0.6271,0.6336,0.6404,0.6456,0.6544,0.6569,0.6643,0.6653,0.6621,0.6626,0.6652,0.6649,0.6731,0.6744,0.67,0.67,0.6701,0,0.5799,0.5842,0.5924,0.596,0.5998,0.6056,0.6097,0.6147,0.6189,0.6266,0.6299,0.6369,0.6427,0.6534,0.659,0.6658,0.667,0.6694,0.668,0.6667,0.667,0.6667,0.6672,0.6695,0.6696,0.6696,0.6696,0,0.5844,0.5866,0.5924,0.599,0.6038,0.6093,0.6149,0.6177,0.6237,0.6282,0.6351,0.6396,0.6486,0.6555,0.6629,0.667,0.6694,0.67,0.671,0.6698,0.6677,0.6689,0.6625,0.6698,0.6698,0.6697,0.6697,0.6697,0.5868,0.5908,0.5972,0.6035,0.6082,0.6133,0.6177,0.6223,0.6281,0.6357,0.6383,0.6454,0.6519,0.662,0.6662,0.672,0.6721,0.6736,0.674,0.6743,0.6741,0.6668,0.6733,0.6733,0.6733,0.6733,0.6733,0,0.5915,0.5957,0.6015,0.6091,0.6141,0.6158,0.6221,0.6262,0.6323,0.6381,0.6438,0.6517,0.6585,0.6645,0.6716,0.675,0.6763,0.6767,0.6765,0.6774,0.6736,0.672,0.6756,0.6756,0.6756,0.6756,0.6756,0.6756,0.5944,0.6013,0.6043,0.6135,0.6178,0.6247,0.6281,0.6329,0.6376,0.6463,0.6518,0.6557,0.6617,0.6692,0.6755,0.6771,0.6796,0.6797,0.6816,0.678,0.6777,0.6774,0.6759,0.6802,0.6802,0.685,0.685,0.6851]},{"header":{"parameterUnit":"m.s-1","parameterCategory":1,"la1":30.2991,"la2":30.254,"lo1":-89.0895,"lo2":-89.0444,"dy":0.0017,"dx":0.0017,"nx":28,"ny":28,"refTime":"2024-07-13T03:00:00:Z","depth":0,"parameterNumber":3,"parameterNumberName":"V-component_of_WINDS"},"data":[0,0,0,0,0,0,0,0,0,0,0,0,0,0,0,0,0,0,0,0,0,0,0,0,0,0,0,0,0,0,0,0,0,0,0,0,0,0,0,0,0,0,0,0,0,0,0,0,0,0,0,0,0,0,0,0,0,0,2.7131,2.7131,0,2.7128,2.7128,2.7128,2.7103,2.7102,2.7102,2.7101,2.7098,2.7098,2.7099,0,0,0,0,0,0,0,0,0,0,0,0,0,2.7111,2.7111,2.7131,2.7131,2.7131,2.7128,2.7128,2.7128,2.7103,2.7102,2.7102,2.7101,2.7098,2.7098,2.7099,0,0,0,0,0,0,0,0,0,0,0,0,0,2.7115,2.7112,2.7131,2.7118,2.7117,2.7128,2.7128,2.7128,2.7103,2.7102,2.7101,2.7101,2.7098,2.7098,2.7099,2.7123,0,0,2.7101,2.7102,0,0,0,0,0,0,0,0,2.7115,2.7116,2.712,2.7119,2.7117,2.7115,2.712,2.7126,2.7104,2.7108,2.7101,2.71,2.7104,2.7105,2.7106,2.7123,2.7122,2.7101,2.7102,2.7102,2.7102,0,0,0,0,0,0,0,2.7115,2.7116,2.713,2.712,2.7118,2.7111,2.7111,2.7121,2.7112,2.7108,2.7106,2.7106,2.7104,2.7106,2.7106,2.7122,2.7101,2.7102,2.7103,2.7103,2.7156,2.7157,0,0,0,0,0,0,2.7116,2.7116,2.713,2.713,2.7114,2.7113,2.7112,2.7117,2.7112,2.711,2.7107,2.7105,2.7105,2.7105,2.7106,2.7132,2.7102,2.7103,2.7103,2.7155,2.7156,2.7157,0,0,0,0,0,0,2.7116,2.7118,2.713,2.7122,2.7123,2.7114,2.7119,2.7117,2.7119,2.7111,2.7109,2.7111,2.7104,2.7105,2.7118,2.7131,2.7103,2.7104,2.7154,2.7155,2.7157,2.7185,0,0,0,0,0,0,2.7116,2.7118,2.7127,2.7123,2.7124,2.7143,2.712,2.7118,2.7121,2.7118,2.7114,2.7112,2.7103,2.7117,2.7119,2.7132,2.7105,2.7153,2.7155,2.7156,2.7182,2.7187,2.719,0,0,0,0,0,2.7115,2.7136,2.7128,2.713,2.7135,2.7144,2.7145,2.7134,2.7122,2.7131,2.7125,2.7112,2.713,2.7119,2.7121,2.7134,2.7152,2.7154,2.7156,2.7181,2.7186,2.719,0,0,0,0,0,0,2.7142,2.7135,2.7126,2.7146,2.7146,2.714,2.7151,2.714,2.7143,2.7141,2.7127,2.7126,2.7142,2.7139,2.7127,2.7155,2.7138,2.7141,2.7156,2.7161,2.7165,2.7165,2.7105,0,0,0,0,0,2.7151,2.7159,2.7152,2.717,2.717,2.7161,2.7164,2.7156,2.7155,2.7154,2.715,2.7149,2.7154,2.7158,2.7162,2.7182,2.718,2.7192,2.7196,2.7199,2.7201,2.721,2.7215,2.7164,2.7164,2.7164,0,0,2.7168,2.7165,2.7171,2.7175,2.7174,2.7182,2.7161,2.717,2.7175,2.7156,2.7168,2.7165,2.7163,2.7179,2.7186,2.7178,2.7215,2.7202,2.7205,2.7205,2.7213,2.7218,2.7222,2.7166,2.7165,2.7165,0,0,2.7203,2.7202,2.7216,2.7215,2.7214,2.7207,2.721,2.7206,2.7203,2.7215,2.72,2.7205,2.7215,2.7214,2.7214,2.7247,2.7235,2.7249,2.727,2.7279,2.7283,2.7286,2.7297,2.7301,2.7251,2.7251,2.7252,0,2.7225,2.7236,2.7225,2.7235,2.7237,2.7219,2.7232,2.7232,2.7232,2.7233,2.7223,2.7233,2.7231,2.7246,2.7254,2.7256,2.7258,2.7249,2.7283,2.7286,2.7289,2.7299,2.7304,2.7253,2.7253,2.7253,2.7253,0,2.7262,2.727,2.7282,2.7282,2.7285,2.7297,2.7286,2.729,2.7281,2.7275,2.7287,2.7284,2.7286,2.7289,2.7281,2.7303,2.7297,2.7286,2.7268,2.7296,2.7305,2.7309,2.7255,2.7255,2.7254,2.7254,0,0,2.7315,2.7308,2.7312,2.7311,2.7307,2.7313,2.7323,2.7326,2.7329,2.7329,2.7337,2.7344,2.7333,2.7334,2.7325,2.7333,2.7358,2.732,2.732,2.7326,2.738,2.7388,2.7393,2.735,2.735,2.7351,2.738,0,2.7348,2.7366,2.7355,2.7374,2.738,2.7363,2.7371,2.737,2.7364,2.7368,2.7362,2.7367,2.7353,2.7353,2.736,2.7353,2.7368,2.7351,2.7356,2.7356,2.7356,2.7398,2.7407,2.7435,2.7383,2.7384,2.7385,0,2.7389,2.739,2.741,2.7403,2.7406,2.7414,2.7414,2.7419,2.7416,2.7411,2.7411,2.74,2.7409,2.7392,2.7403,2.7392,2.7393,2.739,2.7391,2.739,2.7372,2.7398,2.7443,2.7447,2.739,2.739,2.7389,0,2.7424,2.7431,2.7443,2.7443,2.7436,2.7442,2.7439,2.7435,2.7437,2.7437,2.7438,2.7439,2.744,2.7441,2.743,2.7419,2.7442,2.7424,2.7437,2.7438,2.7443,2.7443,2.7488,2.7445,2.7445,2.7445,2.7445,0,2.7461,2.7473,2.7458,2.7466,2.7478,2.7465,2.7478,2.7474,2.747,2.7476,2.7461,2.7466,2.7452,2.7455,2.7447,2.7457,2.7457,2.7453,2.7451,2.7454,2.7455,2.7454,2.7452,2.7446,2.7446,2.7445,2.7445,0,2.7502,2.7493,2.7504,2.7497,2.7495,2.7505,2.7497,2.7503,2.7497,2.7504,2.7505,2.7494,2.7497,2.7486,2.7488,2.7482,2.7497,2.7491,2.7498,2.7496,2.7509,2.7507,2.7556,2.7561,2.7515,2.7515,2.7516,0,2.7526,2.7535,2.7528,2.7531,2.7529,2.7533,2.7535,2.7522,2.7524,2.752,2.7527,2.7529,2.753,2.7536,2.7528,2.7529,2.7523,2.754,2.7523,2.7526,2.7522,2.7521,2.7522,2.7543,2.7544,2.7544,2.7544,0,2.757,2.7564,2.7567,2.7568,2.757,2.757,2.7568,2.7571,2.7557,2.756,2.7563,2.7564,2.7566,2.7568,2.7567,2.7563,2.7551,2.755,2.7553,2.7556,2.7559,2.7557,2.7506,2.7549,2.7548,2.7548,2.7548,2.7547,2.7602,2.7609,2.7604,2.7608,2.7605,2.7604,2.7609,2.7603,2.7605,2.7605,2.7597,2.7602,2.7597,2.7595,2.7593,2.7596,2.7588,2.7592,2.7593,2.7594,2.7596,2.7559,2.7595,2.7595,2.7595,2.7595,2.7595,0,2.7644,2.764,2.7643,2.7642,2.7644,2.7632,2.763,2.7633,2.7637,2.7634,2.7635,2.7638,2.7639,2.7631,2.7632,2.7635,2.763,2.7636,2.7635,2.7634,2.7604,2.7601,2.764,2.764,2.764,2.764,2.764,2.764,2.7666,2.7676,2.767,2.7678,2.7674,2.7678,2.7678,2.7676,2.7674,2.7678,2.7679,2.7674,2.7668,2.7668,2.7668,2.7666,2.7666,2.7674,2.767,2.7641,2.7637,2.7632,2.763,2.7674,2.7674,2.77,2.77,2.77]}]]